Regional Weather Roundup
Issued by NWS

Home | Current Version | Previous Version | Graphics & Text | Print | Product List | Glossary On
Versions: 1 2 3 4 5 6 7 8 9 10 11 12 13 14 15 16 17 18 19 20 21 22 23 24 25 26 27 28 29 30 31 32 33 34 35 36 37 38 39 40 41 42 43 44 45 46 47 48 49 50
212
ASUS45 KABQ 230201
RWRNM
NEW MEXICO REGIONAL WEATHER ROUNDUP
NATIONAL WEATHER SERVICE ALBUQUERQUE NM
800 PM MDT FRI JUL 22 2016

NOTE: "FAIR" MEANS FEW OR NO CLOUDS BELOW 12,000 FEET AGL WITH NO
       SIGNIFICANT WEATHER OR OBSTRUCTIONS TO VISION.

      THIS PRODUCT IS RELEASED AS TWO VERSIONS.  ONE VERSION NEAR
      THE TOP OF THE HOUR CONTAINING PRELIMINARY DATA FROM ALBUQUERQUE
      AND OTHER STATIONS.  A FINAL VERSION WITH ADDITIONAL DATA IS
      ISSUED ABOUT 10 MINUTES AFTER THE HOUR.

NMZ501-503-504-510>518-230300-
NORTHWEST PLATEAU/NORTHCENTRAL MOUNTAINS

CITY           SKY/WX    TMP DP  RH WIND       PRES   REMARKS
FARMINGTON     FAIR      88  44  21 W10       30.14R
LOS ALAMOS     FAIR      82  36  19 W9        30.29F
SANTA FE       FAIR      88  34  14 SW6       30.19S
TAOS           FAIR      81  36  19 NW7       30.29S
ANGEL FIRE     FAIR      72  38  29 S8        30.41S

$$
NMZ402-403-502-505>509-230300-
WESTCENTRAL MOUNTAINS/SOUTHWEST MOUNTAINS

CITY           SKY/WX    TMP DP  RH WIND       PRES   REMARKS
GALLUP         MOCLDY    81  47  30 NW10      30.30R
GRANTS         MOCLDY    81  43  26 W18G25    30.26S
SILVER CITY    FAIR      88  40  18 NW10      30.16S

$$
NMZ407-409-411-412-230300-
SOUTHERN DESERTS

CITY           SKY/WX    TMP DP  RH WIND       PRES   REMARKS
LORDSBURG      FAIR      93  43  17 N5        30.05F
DEMING         FAIR      97  45  16 NW12      30.03S
LAS CRUCES     FAIR      96  41  15 SE7       30.05F
ALAMOGORDO     FAIR      93  45  18 S9        30.04S
T OR C         FAIR      96  41  15 S7        30.06S

$$
NMZ519>523-230300-
CENTRAL VALLEYS/CENTRAL HIGHLANDS

CITY           SKY/WX    TMP DP  RH WIND       PRES   REMARKS
ALBUQUERQUE    FAIR      95  38  13 SW12      30.11S
DOUBLE EAGLE   PTCLDY    90  37  15 VRB6      30.17R
MORIARTY ARPT  CLOUDY    87  38  17 E8G17     30.22R
CLINES CORNERS LGT RAIN  76  47  35 SW24G32   30.33R
BELEN          FAIR      92  38  14 SW8       30.11S
SOCORRO        FAIR      94  38  14 W8        30.07S

$$
NMZ524>526-539-540-230300-
SOUTHCENTRAL MOUNTAINS

CITY           SKY/WX    TMP DP  RH WIND       PRES   REMARKS
RUIDOSO          N/A     81  41  24 SE12      30.31S

$$
NMZ527>531-230300-
NORTHEAST HIGHLANDS/NORTHEAST PLAINS

CITY           SKY/WX    TMP DP  RH WIND       PRES   REMARKS
LAS VEGAS      FAIR      81  43  26 E7        30.27F
RATON          CLOUDY    82  44  26 W7        30.21R
CLAYTON        FAIR      85  49  28 E6        30.12R

$$
NMZ532>537-230300-
EASTCENTRAL PLAINS

CITY           SKY/WX    TMP DP  RH WIND       PRES   REMARKS
TUCUMCARI      FAIR      95  43  16 S18G24    30.02S
CANNON AFB     FAIR      88  47  24 SE10      30.10R
CLOVIS AIRPORT FAIR      88  46  23 SE13      30.10S

$$
NMZ028-029-538-230300-
SOUTHEAST PLAINS

CITY           SKY/WX    TMP DP  RH WIND       PRES   REMARKS
ROSWELL        FAIR      95  43  16 S12       30.03R
ARTESIA        FAIR      95  46  18 SE13      30.03R
CARLSBAD       FAIR      94  43  17 SE10      30.00R
HOBBS          FAIR      90  45  20 SE10      30.08R


$$




USA.gov is the U.S. government's official web portal to all federal, state and local government web resources and services.